Regional Weather Roundup
Issued by NWS Binghamton, NY

Home | Current Version | Previous Version | Text Only | Print | Product List | Glossary On
Versions: 1 2 3 4 5 6 7 8 9 10 11 12 13 14 15 16 17 18 19 20 21 22 23 24 25 26 27 28 29 30 31 32 33 34 35 36 37 38 39 40 41 42 43 44 45 46 47 48 49 50
000
ASUS41 KBGM 220510
RWRBGM
RWRBGM
BINGHAMTON REGIONAL WEATHER ROUNDUP
NATIONAL WEATHER SERVICE BINGHAMTON NY
100 AM EDT WED OCT 22 2014

Note: "fair" indicates few or no clouds below 12,000 feet with no
significant weather and/or obstructions to visibility.

* = Station(s) that does not report precipitation, such as rain,
snow, etc, also no thunder or fog.

!NYZ009-015>018-022>025-036-037-044>046-055>057-062-220600
...CENTRAL NEW YORK...

CITY           SKY/WX    TMP DP  RH WIND       PRES   REMARKS
BINGHAMTON     CLOUDY    49  47  93 NE6       29.97S
CORTLAND       CLOUDY    50  50 100 N3        30.01S FOG
DANSVILLE      CLOUDY    47  45  93 NW10      30.06S
ELMIRA         CLOUDY    50  49  96 N7        30.00S
ITHACA         CLOUDY    50  49  96 N3        30.01S FOG
HAMILTON       CLOUDY    52  46  82 NE5       30.01S
MONTICELLO     CLOUDY    48  48 100 N3        29.96F
NORWICH        CLOUDY    50  46  87 N6        30.00S
ONEONTA        CLOUDY    46  45  93 E3        29.99S FOG
PENN YAN       CLOUDY    47  45  93 VRB6      30.04R FOG
ROME           CLOUDY    50  45  83 NE3       30.04S
SIDNEY         DRIZZLE   52  52 100 CALM      29.98S
SYRACUSE       CLOUDY    50  48  92 N6        30.03S
$$

!PAZ038>040-043-044-047-048-072-220600
...NORTHEAST PENNSYLVANIA...

CITY           SKY/WX    TMP DP  RH WIND       PRES   REMARKS
HAZLETON       MOCLDY    50  46  87 N5        29.95F
SCRANTON       CLOUDY    52  49  89 CALM      29.93F
TOWANDA*       MOCLDY    52  50  93 N8        29.98S
$$
&&
KEY
WCI = WIND CHILL INDEX
VSB = VISIBILITY
HX  = HEAT INDEX
$$



USA.gov is the U.S. government's official web portal to all federal, state and local government web resources and services.